When you browse on this site, cookies collect data to enhance your experience and personalize the content and advertising you see.
Visit our Privacy Policy to learn more. By continuing to use the site, you agree to this use of cookies and data.
  • In Slovakia
  • List of Countries
  • For 7 days
  • Water Temperature
  • Satellite Maps
  • Weather Map
  • Weather Widgets
  • user-avatar
    Login

    Hourly Weather Tuktaevo

    Today, 17 January, Thursday

    Time Temperature Precipitation Wind Pressure Humidity
    00:00 -6°C° 0 mm 8 mps 744 mmHg 72%
    01:00 -6°C° 0 mm 7 mps 744 mmHg 72%
    02:00 -7°C° 0 mm 8 mps 744 mmHg 73%
    03:00 -7°C° 0 mm 8 mps 743 mmHg 73%
    04:00 -8°C° 0 mm 8 mps 743 mmHg 74%
    05:00 -8°C° 0.2 mm 8 mps 743 mmHg 79%
    06:00 -10°C° 0.2 mm 8 mps 743 mmHg 84%
    07:00 -10°C° 0.2 mm 8 mps 742 mmHg 90%
    08:00 -10°C° 0.6 mm 8 mps 742 mmHg 90%
    09:00 -10°C° 0.6 mm 8 mps 742 mmHg 91%
    10:00 -11°C° 0 mm 8 mps 742 mmHg 92%
    11:00 -11°C° 0.4 mm 8 mps 742 mmHg 92%
    12:00 -11°C° 0.4 mm 7 mps 743 mmHg 92%
    13:00 -11°C° 0.4 mm 7 mps 743 mmHg 93%
    14:00 -10°C° 0.1 mm 6 mps 743 mmHg 93%
    15:00 -8°C° 0.1 mm 5 mps 744 mmHg 92%
    16:00 -8°C° 0 mm 4 mps 744 mmHg 93%
    17:00 -9°C° 0 mm 4 mps 745 mmHg 93%
    18:00 -9°C° 0 mm 3 mps 746 mmHg 94%
    19:00 -9°C° 0 mm 3 mps 746 mmHg 94%
    20:00 -12°C° 0 mm 3 mps 747 mmHg 95%
    21:00 -14°C° 0 mm 3 mps 747 mmHg 95%
    22:00 -15°C° 0 mm 3 mps 748 mmHg 96%
    23:00 -16°C° 0 mm 3 mps 748 mmHg 96%

    Tomorrow, 18 January, Friday

    Time Temperature Precipitation Wind Pressure Humidity
    00:00 -17°C° 0 mm 3 mps 748 mmHg 96%
    01:00 -17°C° 0 mm 3 mps 748 mmHg 96%
    02:00 -17°C° 0 mm 3 mps 748 mmHg 96%
    03:00 -17°C° 0 mm 3 mps 748 mmHg 96%
    04:00 -18°C° 0 mm 4 mps 749 mmHg 96%
    05:00 -18°C° 0 mm 4 mps 748 mmHg 95%
    06:00 -18°C° 0 mm 5 mps 748 mmHg 94%
    07:00 -18°C° 0 mm 5 mps 748 mmHg 94%
    08:00 -17°C° 0 mm 6 mps 747 mmHg 92%
    09:00 -17°C° 0 mm 6 mps 747 mmHg 90%
    10:00 -17°C° 0 mm 7 mps 746 mmHg 88%
    11:00 -15°C° 0 mm 7 mps 746 mmHg 88%
    12:00 -15°C° 0 mm 8 mps 746 mmHg 87%
    13:00 -13°C° 0 mm 8 mps 745 mmHg 87%
    14:00 -13°C° 0.5 mm 8 mps 745 mmHg 88%
    15:00 -12°C° 0.5 mm 8 mps 745 mmHg 90%
    16:00 -11°C° 0.5 mm 8 mps 745 mmHg 91%
    17:00 -11°C° 0.2 mm 7 mps 745 mmHg 91%
    18:00 -12°C° 0.2 mm 7 mps 745 mmHg 91%
    19:00 -11°C° 0.2 mm 6 mps 746 mmHg 90%
    20:00 -11°C° 0 mm 6 mps 746 mmHg 91%
    21:00 -11°C° 0 mm 6 mps 746 mmHg 92%
    22:00 -11°C° 0 mm 5 mps 747 mmHg 92%
    23:00 -11°C° 0.1 mm 5 mps 747 mmHg 93%

    Day after tomorrow, 19 January, Saturday

    Time Temperature Precipitation Wind Pressure Humidity
    00:00 -11°C° 0.1 mm 5 mps 747 mmHg 93%
    01:00 -10°C° 0.1 mm 5 mps 748 mmHg 94%
    02:00 -11°C° 0 mm 5 mps 748 mmHg 94%
    03:00 -11°C° 0 mm 5 mps 748 mmHg 94%
    04:00 -11°C° 0 mm 5 mps 748 mmHg 95%
    05:00 -11°C° 0 mm 5 mps 748 mmHg 95%
    06:00 -11°C° 0 mm 5 mps 748 mmHg 95%
    07:00 -11°C° 0 mm 5 mps 747 mmHg 95%
    08:00 -11°C° 0 mm 5 mps 747 mmHg 94%
    09:00 -10°C° 0 mm 6 mps 747 mmHg 94%
    10:00 -10°C° 0 mm 6 mps 747 mmHg 93%
    11:00 -11°C° 0.1 mm 7 mps 747 mmHg 93%
    12:00 -9°C° 0.1 mm 7 mps 746 mmHg 93%
    13:00 -9°C° 0.1 mm 7 mps 746 mmHg 93%
    14:00 -9°C° 0.1 mm 7 mps 746 mmHg 92%
    15:00 -8°C° 0.1 mm 7 mps 746 mmHg 92%
    16:00 -8°C° 0.1 mm 7 mps 745 mmHg 91%
    17:00 -8°C° 0.1 mm 7 mps 745 mmHg 92%
    18:00 -8°C° 0.1 mm 6 mps 745 mmHg 92%
    19:00 -6°C° 0.1 mm 6 mps 745 mmHg 92%
    20:00 -6°C° 0.1 mm 6 mps 745 mmHg 93%
    21:00 -6°C° 0.1 mm 6 mps 745 mmHg 93%
    22:00 -6°C° 0.1 mm 5 mps 745 mmHg 93%
    23:00 -6°C° 0.2 mm 5 mps 745 mmHg 94%

    20 January, Sunday

    Time Temperature Precipitation Wind Pressure Humidity
    00:00 -7°C° 0.2 mm 5 mps 745 mmHg 94%
    01:00 -7°C° 0.2 mm 5 mps 745 mmHg 94%
    02:00 -7°C° 0.3 mm 4 mps 744 mmHg 95%
    03:00 -7°C° 0.3 mm 4 mps 744 mmHg 95%
    04:00 -7°C° 0.3 mm 4 mps 744 mmHg 95%
    05:00 -7°C° 0.6 mm 4 mps 744 mmHg 95%
    06:00 -7°C° 0.6 mm 4 mps 744 mmHg 96%
    07:00 -7°C° 0.6 mm 4 mps 743 mmHg 96%
    08:00 -7°C° 0.5 mm 4 mps 743 mmHg 95%
    09:00 -8°C° 0.5 mm 4 mps 744 mmHg 95%
    10:00 -8°C° 0.5 mm 5 mps 744 mmHg 94%
    11:00 -10°C° 0.1 mm 5 mps 744 mmHg 93%
    12:00 -11°C° 0.1 mm 5 mps 744 mmHg 93%
    13:00 -11°C° 0.1 mm 5 mps 744 mmHg 92%
    14:00 -12°C° 0 mm 4 mps 745 mmHg 92%
    15:00 -15°C° 0 mm 4 mps 746 mmHg 93%
    16:00 -16°C° 0 mm 3 mps 746 mmHg 94%
    17:00 -17°C° 0 mm 3 mps 747 mmHg 95%
    18:00 -19°C° 0 mm 3 mps 748 mmHg 96%
    19:00 -21°C° 0 mm 3 mps 748 mmHg 98%
    20:00 -21°C° 0 mm 3 mps 749 mmHg 97%
    21:00 -19°C° 0 mm 3 mps 749 mmHg 97%
    22:00 -18°C° 0 mm 3 mps 750 mmHg 96%
    23:00 -18°C° 0 mm 3 mps 750 mmHg 97%

    21 January, Monday

    Time Temperature Precipitation Wind Pressure Humidity
    00:00 -18°C° 0 mm 3 mps 750 mmHg 97%
    01:00 -19°C° 0 mm 3 mps 750 mmHg 97%
    02:00 -18°C° 0 mm 3 mps 750 mmHg 97%
    03:00 -18°C° 0 mm 4 mps 750 mmHg 96%
    04:00 -18°C° 0 mm 4 mps 750 mmHg 96%
    05:00 -18°C° 0 mm 5 mps 750 mmHg 96%
    06:00 -18°C° 0 mm 6 mps 750 mmHg 95%
    07:00 -18°C° 0 mm 6 mps 750 mmHg 95%
    08:00 -18°C° 0 mm 7 mps 750 mmHg 93%
    09:00 -18°C° 0 mm 7 mps 750 mmHg 92%
    10:00 -17°C° 0 mm 8 mps 750 mmHg 90%
    11:00 -17°C° 0.1 mm 8 mps 750 mmHg 90%
    12:00 -15°C° 0.1 mm 7 mps 750 mmHg 89%
    13:00 -15°C° 0.1 mm 7 mps 750 mmHg 88%
    14:00 -15°C° 0.1 mm 7 mps 750 mmHg 89%
    15:00 -15°C° 0.1 mm 7 mps 750 mmHg 89%
    16:00 -15°C° 0.1 mm 7 mps 750 mmHg 89%
    17:00 -15°C° 0.2 mm 7 mps 750 mmHg 90%
    18:00 -15°C° 0.2 mm 6 mps 750 mmHg 91%
    19:00 -15°C° 0.2 mm 6 mps 750 mmHg 91%
    20:00 -15°C° 0.2 mm 6 mps 750 mmHg 91%
    21:00 -15°C° 0.2 mm 7 mps 750 mmHg 91%
    22:00 -17°C° 0.2 mm 7 mps 750 mmHg 91%
    23:00 -16°C° 0.1 mm 6 mps 750 mmHg 92%

    22 January, Tuesday

    Time Temperature Precipitation Wind Pressure Humidity
    00:00 -16°C° 0.1 mm 6 mps 750 mmHg 92%
    01:00 -16°C° 0.1 mm 6 mps 750 mmHg 93%
    02:00 -16°C° 0.2 mm 6 mps 750 mmHg 92%
    03:00 -16°C° 0.2 mm 6 mps 749 mmHg 92%
    04:00 -18°C° 0.2 mm 7 mps 749 mmHg 92%
    05:00 -17°C° 0.2 mm 6 mps 748 mmHg 92%
    06:00 -17°C° 0.2 mm 6 mps 748 mmHg 92%
    07:00 -17°C° 0.2 mm 6 mps 747 mmHg 93%
    08:00 -17°C° 0.7 mm 6 mps 746 mmHg 93%
    09:00 -16°C° 0.7 mm 6 mps 745 mmHg 93%
    10:00 -15°C° 0.7 mm 6 mps 745 mmHg 94%
    11:00 -15°C° 0.6 mm 6 mps 744 mmHg 93%
    12:00 -14°C° 0.6 mm 6 mps 743 mmHg 93%
    13:00 -14°C° 0.6 mm 6 mps 742 mmHg 93%
    14:00 -12°C° 0.3 mm 5 mps 741 mmHg 93%
    15:00 -12°C° 0.3 mm 5 mps 741 mmHg 93%
    16:00 -10°C° 0.3 mm 4 mps 740 mmHg 93%
    17:00 -9°C° 0.9 mm 4 mps 739 mmHg 94%
    18:00 -8°C° 0.9 mm 4 mps 739 mmHg 94%
    19:00 -7°C° 0.9 mm 5 mps 738 mmHg 95%
    20:00 -9°C° 0.7 mm 6 mps 738 mmHg 94%
    21:00 -12°C° 0.7 mm 7 mps 738 mmHg 93%
    22:00 -13°C° 0.7 mm 8 mps 739 mmHg 93%
    23:00 -15°C° 0.1 mm 8 mps 740 mmHg 92%
    Show more